Location: PSU-Greenbush Astrophysical Observatory
(37.5140°N, 94.9880°W)
Time: 04:47:41
(UTC-06:00)

deb Explorer IX - Pass Details

Date: 24 January 2020
Orbit: 549 x 1099 km, 38.8° (Epoch: 19 February)

Event Time Altitude Azimuth Distance (km) Brightness Sun altitude
Rises 02:12:34 0° 282° (WNW) 3,907 - -61.5°
Reaches altitude 10° 02:15:22 10° 282° (WNW) 2,940 - -61.0°
Maximum altitude 02:22:40 84° 195° (SSW) 1,053 - -59.8°
Drops below altitude 10° 02:29:18 10° 108° (ESE) 2,694 - -58.6°
Sets 02:31:47 0° 108° (ESE) 3,565 - -58.2°
